[[{"header":{"parameterUnit":"m.s-1","parameterCategory":1,"la1":30.2991,"la2":30.254,"lo1":-89.0895,"lo2":-89.0444,"dy":0.0017,"dx":0.0017,"nx":28,"ny":28,"refTime":"2025-04-17T09:00:00:Z","depth":0,"parameterNumber":2,"parameterNumberName":"U-component_of_WINDS"},"data":[0,0,0,0,0,0,0,0,0,0,0,0,0,0,0,0,0,0,0,0,0,0,0,0,0,0,0,0,0,0,0,0,0,0,0,0,0,0,0,0,0,0,0,0,0,0,0,0,0,0,0,0,0,0,0,0,0,0,-3.1612,-3.1613,0,-3.1657,-3.1658,-3.1658,-3.1639,-3.1638,-3.1637,-3.1636,-3.1681,-3.1683,-3.1685,0,0,0,0,0,0,0,0,0,0,0,0,0,-3.151,-3.1512,-3.1612,-3.1613,-3.1613,-3.1657,-3.1658,-3.1658,-3.1639,-3.1638,-3.1637,-3.1636,-3.168,-3.1683,-3.1686,0,0,0,0,0,0,0,0,0,0,0,0,0,-3.1555,-3.1513,-3.1612,-3.1609,-3.1609,-3.1657,-3.1658,-3.1658,-3.164,-3.1638,-3.1636,-3.1635,-3.1679,-3.1683,-3.1686,-3.1739,0,0,-3.1696,-3.1697,0,0,0,0,0,0,0,0,-3.1552,-3.1559,-3.1609,-3.161,-3.161,-3.1641,-3.1638,-3.1685,-3.164,-3.1628,-3.1636,-3.1634,-3.1669,-3.1673,-3.1685,-3.1741,-3.1743,-3.1696,-3.1698,-3.17,-3.1701,0,0,0,0,0,0,0,-3.1549,-3.1557,-3.163,-3.161,-3.161,-3.1606,-3.161,-3.1647,-3.1657,-3.1629,-3.1628,-3.1633,-3.1669,-3.1682,-3.1686,-3.1743,-3.1696,-3.1699,-3.1701,-3.1702,-3.1845,-3.1846,0,0,0,0,0,0,-3.1546,-3.1554,-3.1629,-3.1631,-3.1577,-3.1609,-3.1614,-3.1633,-3.1657,-3.1659,-3.1635,-3.1632,-3.1677,-3.1682,-3.1687,-3.175,-3.17,-3.1703,-3.1705,-3.1843,-3.1845,-3.1847,0,0,0,0,0,0,-3.1544,-3.1553,-3.1627,-3.1592,-3.1601,-3.1612,-3.1633,-3.1634,-3.1647,-3.1661,-3.1663,-3.1646,-3.1676,-3.1683,-3.1726,-3.1751,-3.1704,-3.1707,-3.1841,-3.1843,-3.1846,-3.1876,0,0,0,0,0,0,-3.1541,-3.1552,-3.1572,-3.1593,-3.1603,-3.1665,-3.1635,-3.1636,-3.1653,-3.165,-3.1672,-3.1674,-3.1675,-3.1721,-3.1729,-3.1755,-3.171,-3.1838,-3.1842,-3.1845,-3.1873,-3.188,-3.1885,0,0,0,0,0,-3.1538,-3.1579,-3.1574,-3.1583,-3.1629,-3.1666,-3.1672,-3.1673,-3.1655,-3.1675,-3.1684,-3.1673,-3.1748,-3.1726,-3.1735,-3.1762,-3.1837,-3.1841,-3.1845,-3.187,-3.1878,-3.1885,0,0,0,0,0,0,-3.1561,-3.1582,-3.1576,-3.1625,-3.1644,-3.1663,-3.1688,-3.1681,-3.1706,-3.1702,-3.1702,-3.1707,-3.1751,-3.1761,-3.1736,-3.1814,-3.179,-3.1796,-3.1806,-3.1814,-3.182,-3.1816,-3.1713,0,0,0,0,0,-3.1572,-3.1601,-3.1617,-3.1659,-3.1669,-3.1677,-3.1694,-3.1693,-3.1712,-3.172,-3.1732,-3.1751,-3.1779,-3.1797,-3.1823,-3.1875,-3.1879,-3.1898,-3.1905,-3.191,-3.1914,-3.1942,-3.195,-3.186,-3.186,-3.186,0,0,-3.1594,-3.1609,-3.1627,-3.1664,-3.1679,-3.1709,-3.1684,-3.1717,-3.1739,-3.1725,-3.1766,-3.1776,-3.1798,-3.1845,-3.1867,-3.1855,-3.194,-3.1915,-3.1919,-3.1921,-3.1947,-3.1955,-3.1963,-3.1863,-3.1862,-3.1862,0,0,-3.165,-3.1665,-3.1701,-3.1717,-3.1739,-3.1745,-3.1754,-3.1774,-3.178,-3.1822,-3.1812,-3.1839,-3.1886,-3.1902,-3.1916,-3.198,-3.197,-3.1988,-3.202,-3.2047,-3.2054,-3.206,-3.2082,-3.209,-3.1993,-3.1993,-3.1993,0,-3.1675,-3.172,-3.1721,-3.1754,-3.177,-3.176,-3.1797,-3.1812,-3.1842,-3.1853,-3.184,-3.19,-3.1914,-3.1965,-3.198,-3.1993,-3.2002,-3.1985,-3.2053,-3.2059,-3.2065,-3.2086,-3.2094,-3.1995,-3.1995,-3.1995,-3.1995,0,-3.1749,-3.178,-3.1807,-3.1836,-3.1856,-3.1891,-3.1897,-3.1917,-3.1915,-3.1922,-3.1964,-3.1981,-3.201,-3.2023,-3.2021,-3.2074,-3.2065,-3.2053,-3.2027,-3.2076,-3.2095,-3.2103,-3.1998,-3.1997,-3.1997,-3.1996,0,0,-3.1819,-3.185,-3.1859,-3.1872,-3.1897,-3.1921,-3.1956,-3.1985,-3.2002,-3.2024,-3.2052,-3.2094,-3.2082,-3.2098,-3.2098,-3.2122,-3.217,-3.2106,-3.2107,-3.2117,-3.2229,-3.2237,-3.2247,-3.2165,-3.2167,-3.2168,-3.2227,0,-3.1876,-3.1937,-3.1939,-3.1994,-3.2023,-3.2015,-3.2045,-3.2063,-3.2071,-3.2096,-3.2105,-3.2134,-3.2117,-3.2127,-3.215,-3.216,-3.2193,-3.2156,-3.2191,-3.2192,-3.2184,-3.2257,-3.2266,-3.2321,-3.2235,-3.2236,-3.2237,0,-3.1951,-3.1975,-3.2033,-3.2054,-3.2066,-3.2093,-3.212,-3.2144,-3.2165,-3.2169,-3.2188,-3.2185,-3.222,-3.2195,-3.2244,-3.2218,-3.2234,-3.2241,-3.2243,-3.2245,-3.2216,-3.226,-3.2338,-3.2346,-3.2249,-3.2248,-3.2247,0,-3.1995,-3.2042,-3.2082,-3.2094,-3.212,-3.2139,-3.2151,-3.217,-3.2188,-3.2212,-3.2223,-3.2251,-3.2265,-3.2287,-3.2291,-3.2273,-3.234,-3.2315,-3.2343,-3.2343,-3.2356,-3.2355,-3.2437,-3.2369,-3.2368,-3.2368,-3.2368,0,-3.2057,-3.2093,-3.2103,-3.2127,-3.2167,-3.217,-3.2209,-3.222,-3.2237,-3.2264,-3.2259,-3.2284,-3.2289,-3.2315,-3.2319,-3.2358,-3.2365,-3.2369,-3.2369,-3.2369,-3.2368,-3.2377,-3.2373,-3.237,-3.237,-3.237,-3.2369,0,-3.2113,-3.2121,-3.2164,-3.2185,-3.2192,-3.222,-3.2238,-3.2262,-3.2269,-3.2303,-3.2311,-3.2323,-3.2354,-3.2361,-3.2397,-3.24,-3.2446,-3.2444,-3.2439,-3.2438,-3.2466,-3.2463,-3.2555,-3.2567,-3.2492,-3.2493,-3.2493,0,-3.2152,-3.2179,-3.2203,-3.222,-3.2233,-3.2261,-3.2279,-3.2284,-3.2302,-3.2329,-3.235,-3.238,-3.2404,-3.2454,-3.2465,-3.2493,-3.249,-3.2521,-3.2494,-3.2493,-3.249,-3.2487,-3.249,-3.2525,-3.2526,-3.2527,-3.2527,0,-3.2219,-3.2222,-3.2248,-3.2276,-3.2297,-3.2319,-3.234,-3.2355,-3.2362,-3.2384,-3.2415,-3.2434,-3.2471,-3.2501,-3.253,-3.2541,-3.2536,-3.2536,-3.2544,-3.2543,-3.2539,-3.254,-3.2452,-3.2533,-3.2533,-3.2532,-3.2532,-3.2532,-3.2267,-3.2291,-3.2311,-3.2341,-3.2357,-3.2377,-3.24,-3.2411,-3.2437,-3.2468,-3.2469,-3.2503,-3.2524,-3.2561,-3.2575,-3.2602,-3.2592,-3.2604,-3.2606,-3.2609,-3.2611,-3.2536,-3.2607,-3.2607,-3.2607,-3.2607,-3.2607,0,-3.2334,-3.2347,-3.2374,-3.2403,-3.2426,-3.242,-3.2442,-3.2462,-3.2492,-3.2512,-3.2536,-3.2572,-3.2602,-3.2616,-3.2645,-3.2664,-3.2662,-3.2671,-3.2669,-3.2672,-3.2618,-3.2608,-3.2672,-3.2672,-3.2672,-3.2672,-3.2672,-3.2672,-3.2371,-3.2411,-3.2416,-3.2464,-3.2476,-3.251,-3.2523,-3.2542,-3.2558,-3.2598,-3.2622,-3.2632,-3.265,-3.268,-3.2707,-3.271,-3.272,-3.2731,-3.2733,-3.2682,-3.2676,-3.2669,-3.266,-3.2733,-3.2734,-3.2784,-3.2785,-3.2785]},{"header":{"parameterUnit":"m.s-1","parameterCategory":1,"la1":30.2991,"la2":30.254,"lo1":-89.0895,"lo2":-89.0444,"dy":0.0017,"dx":0.0017,"nx":28,"ny":28,"refTime":"2025-04-17T09:00:00:Z","depth":0,"parameterNumber":3,"parameterNumberName":"V-component_of_WINDS"},"data":[0,0,0,0,0,0,0,0,0,0,0,0,0,0,0,0,0,0,0,0,0,0,0,0,0,0,0,0,0,0,0,0,0,0,0,0,0,0,0,0,0,0,0,0,0,0,0,0,0,0,0,0,0,0,0,0,0,0,5.2347,5.2347,0,5.237,5.2371,5.2371,5.2316,5.2314,5.2313,5.2311,5.2332,5.2334,5.2336,0,0,0,0,0,0,0,0,0,0,0,0,0,5.2252,5.2254,5.2347,5.2347,5.2348,5.237,5.2371,5.2371,5.2317,5.2314,5.2312,5.231,5.2331,5.2333,5.2336,0,0,0,0,0,0,0,0,0,0,0,0,0,5.2286,5.2255,5.2347,5.2323,5.2321,5.237,5.2371,5.2371,5.2317,5.2314,5.2312,5.2309,5.233,5.2333,5.2336,5.2408,0,0,5.2346,5.2348,0,0,0,0,0,0,0,0,5.2284,5.229,5.2326,5.2325,5.2323,5.2338,5.2345,5.2383,5.2318,5.2319,5.2311,5.2308,5.2336,5.2338,5.2348,5.2409,5.241,5.2347,5.2349,5.235,5.2351,0,0,0,0,0,0,0,5.2282,5.2288,5.2356,5.2327,5.2325,5.231,5.2312,5.2352,5.2341,5.2318,5.2314,5.2318,5.2334,5.2345,5.2348,5.241,5.2347,5.2349,5.2351,5.2353,5.2532,5.2534,0,0,0,0,0,0,5.2283,5.2287,5.2355,5.2357,5.2297,5.2314,5.2316,5.2336,5.2341,5.2339,5.232,5.2315,5.2341,5.2344,5.2349,5.2433,5.235,5.2353,5.2355,5.2529,5.2532,5.2535,0,0,0,0,0,0,5.2281,5.229,5.2354,5.2321,5.2328,5.2319,5.2341,5.2337,5.2348,5.2342,5.234,5.2334,5.2339,5.2344,5.2394,5.2433,5.2354,5.2357,5.2525,5.253,5.2534,5.2602,0,0,0,0,0,0,5.2279,5.2289,5.2317,5.2322,5.233,5.24,5.2343,5.234,5.2355,5.2348,5.2354,5.2353,5.2337,5.239,5.2397,5.2436,5.236,5.2522,5.2527,5.2532,5.2597,5.2608,5.2619,0,0,0,0,0,5.2276,5.2335,5.2319,5.2328,5.2365,5.2403,5.2407,5.239,5.2358,5.2385,5.2381,5.2352,5.2428,5.2395,5.2403,5.2444,5.2519,5.2526,5.2532,5.2592,5.2606,5.2618,0,0,0,0,0,0,5.2334,5.2335,5.2317,5.238,5.2392,5.2394,5.2427,5.2405,5.2425,5.2419,5.2395,5.2397,5.2451,5.2452,5.2416,5.2513,5.2468,5.2476,5.2511,5.2524,5.2535,5.2533,5.2363,0,0,0,0,0,5.2354,5.2386,5.2385,5.244,5.2447,5.2437,5.2453,5.2438,5.2449,5.2453,5.2453,5.2463,5.2489,5.2507,5.253,5.2597,5.2597,5.2629,5.264,5.2649,5.2656,5.2691,5.2705,5.2556,5.2556,5.2556,0,0,5.2396,5.2401,5.2422,5.2452,5.246,5.2492,5.2441,5.2478,5.2501,5.2458,5.2506,5.2506,5.2516,5.2575,5.26,5.2577,5.2697,5.2657,5.2664,5.2666,5.2699,5.2713,5.2725,5.256,5.2559,5.2559,0,0,5.2489,5.2496,5.2543,5.2552,5.2564,5.2557,5.2569,5.2574,5.2573,5.262,5.2589,5.2616,5.2661,5.267,5.268,5.2778,5.2752,5.2786,5.2843,5.2878,5.2889,5.2899,5.2934,5.2946,5.2794,5.2794,5.2794,0,5.2539,5.2588,5.257,5.2609,5.2623,5.2587,5.2634,5.2643,5.2662,5.2672,5.2647,5.2703,5.2707,5.2767,5.2791,5.2801,5.2813,5.2785,5.2889,5.2899,5.2909,5.2941,5.2954,5.2798,5.2797,5.2797,5.2796,0,5.2648,5.2683,5.2719,5.274,5.2758,5.2801,5.2789,5.2809,5.2793,5.2789,5.2837,5.2842,5.2865,5.2879,5.2863,5.2937,5.2922,5.2893,5.2847,5.2927,5.2957,5.2969,5.2804,5.2802,5.2801,5.28,0,0,5.2777,5.2789,5.2802,5.2812,5.2823,5.2849,5.289,5.2915,5.2932,5.2947,5.298,5.302,5.2994,5.3006,5.2991,5.3021,5.3098,5.2989,5.2989,5.3008,5.3179,5.32,5.3214,5.3081,5.3083,5.3085,5.3178,0,5.2869,5.2941,5.2926,5.2996,5.3028,5.2994,5.303,5.3041,5.3038,5.3063,5.3059,5.3087,5.3051,5.3058,5.3086,5.3083,5.3132,5.3076,5.3111,5.3112,5.3109,5.323,5.3252,5.3339,5.3189,5.3191,5.3193,0,5.2985,5.3006,5.308,5.3087,5.3099,5.3132,5.3153,5.3178,5.3189,5.3185,5.3199,5.3178,5.3218,5.3173,5.3227,5.3189,5.3203,5.3203,5.3206,5.3208,5.3157,5.3235,5.3367,5.338,5.3211,5.3209,5.3208,0,5.3071,5.3117,5.3168,5.3176,5.3186,5.321,5.3215,5.3223,5.3239,5.3258,5.3268,5.329,5.3303,5.332,5.3306,5.3274,5.3362,5.3315,5.3359,5.3359,5.3378,5.3377,5.3514,5.3388,5.3388,5.3388,5.3388,0,5.3175,5.3221,5.3207,5.3237,5.3288,5.327,5.332,5.3321,5.3329,5.3359,5.3331,5.336,5.334,5.3366,5.3355,5.3401,5.3407,5.3404,5.34,5.3406,5.3406,5.3414,5.3407,5.3391,5.3391,5.339,5.3389,0,5.3279,5.3272,5.3324,5.3329,5.3332,5.3369,5.3373,5.3401,5.3396,5.3434,5.3442,5.3434,5.3463,5.3451,5.3482,5.3475,5.3534,5.3523,5.3531,5.3528,5.3572,5.3568,5.3717,5.3736,5.3599,5.3601,5.3602,0,5.3346,5.3381,5.339,5.3409,5.3416,5.3446,5.3463,5.3447,5.3465,5.3481,5.3507,5.3534,5.3555,5.3604,5.36,5.3623,5.3612,5.3663,5.3615,5.362,5.3612,5.361,5.3613,5.3672,5.3674,5.3675,5.3676,0,5.3464,5.3459,5.3484,5.3509,5.353,5.3548,5.3564,5.358,5.3565,5.3586,5.3617,5.3633,5.3666,5.3693,5.3714,5.3717,5.3694,5.3691,5.3703,5.3708,5.3711,5.371,5.3556,5.3688,5.3687,5.3686,5.3685,5.3685,5.3551,5.358,5.3592,5.3622,5.3632,5.3648,5.3675,5.3674,5.3699,5.3725,5.3714,5.3749,5.3759,5.3785,5.3792,5.3819,5.3799,5.3815,5.3819,5.3823,5.3829,5.3708,5.3823,5.3822,5.3822,5.3822,5.3822,0,5.3667,5.3674,5.3701,5.3725,5.3748,5.3725,5.3742,5.3762,5.3794,5.3806,5.3828,5.3863,5.3889,5.3888,5.3913,5.3934,5.3924,5.3941,5.3939,5.394,5.3846,5.3833,5.3949,5.3949,5.3949,5.3949,5.3949,5.3949,5.3731,5.378,5.3776,5.383,5.3835,5.3871,5.3882,5.3896,5.3905,5.3946,5.3968,5.3968,5.3975,5.3999,5.4023,5.4021,5.4031,5.4052,5.4047,5.3959,5.3947,5.3934,5.3923,5.4055,5.4055,5.4139,5.414,5.414]}]]